Flag Weather past 2 weeks in Colorado Springs, Colorado, U.S.A.

Now
47 °F

Passing clouds.


Feels Like: 40 °F
Forecast: 28 / 47 °F
Wind: 20 mph from Northwest

Location: City Of Colorado Springs Municipal Airport

Current Time: Nov 25, 2014 at 5:26:22 PM

Latest Report: Nov 25, 2014 at 4:54 PM


Visibility: 10 mi

Pressure: 29.99 "Hg

Humidity: 29%

Dew point: 16 °F

Location of Colorado SpringsLocation

Historic Weather in Colorado Springs — Graph

°F

Colorado Springs temperature yesterday

Maximum temperature yesterday: 40 °F (at 11:54 AM)
Minimum temperature yesterday: 16 °F (at 11:54 PM)
Average temperature yesterday: 29 °F

Past Weeks' High & Low Weather Summary

 TemperatureHumidityPressure
High60 °F (Nov 22, 12:54 PM)93% (Nov 23, 5:54 PM)30.70 "Hg (Nov 23, 5:54 PM)
Low-3 °F (Nov 13, 3:54 AM)11% (Nov 22, 12:54 PM)29.40 "Hg (Nov 23, 12:54 AM)
Average25 °F59%30.15 "Hg
* Reported Nov 10 3:54 PM — Nov 25 3:54 PM, Colorado Springs, Weather by CustomWeather, © 2014

Note: Actual official high and low records may vary slightly from our data, if they occured in-between our weather recording intervals... More about our weather records

Advertising

Colorado Springs weather history for previous 24 hours

 ConditionsComfort  
Time TempWeatherWind HumidityBarometerVisibility
3:54 PM
Nov 25
48 °FPartly sunny.17 mph27%29.97 "Hg10 mi
2:54 PM48 °FPartly sunny.21 mph25%29.95 "Hg10 mi
1:54 PM47 °FBroken clouds.14 mph26%29.98 "Hg10 mi
12:54 PM46 °FBroken clouds.28 mph27%30.00 "Hg10 mi
11:54 AM45 °FPartly sunny.22 mph28%30.02 "Hg10 mi
10:54 AM34 °FPartly sunny.10 mph50%30.11 "Hg10 mi
9:54 AM30 °FPartly sunny.12 mph47%30.13 "Hg10 mi
8:54 AM26 °FPartly sunny.12 mph55%30.16 "Hg10 mi
7:54 AM25 °FPartly sunny.3 mph60%30.20 "Hg10 mi
6:54 AM22 °FPartly sunny.3 mph62%30.24 "Hg10 mi
5:54 AM20 °FPartly cloudy.6 mph65%30.26 "Hg10 mi
4:54 AM18 °FPassing clouds.5 mph62%30.27 "Hg10 mi
3:54 AM18 °FClear.No wind62%30.29 "Hg10 mi
2:54 AM18 °FClear.7 mph65%30.29 "Hg10 mi
1:54 AM17 °FClear.7 mph68%30.30 "Hg10 mi
12:54 AM17 °FClear.6 mph68%30.32 "Hg10 mi
11:54 PM
Nov 24
16 °FClear.8 mph74%30.33 "Hg10 mi
10:54 PM18 °FClear.7 mph80%30.35 "Hg10 mi
9:54 PM23 °FClear.7 mph78%30.35 "Hg10 mi
8:54 PM24 °FPassing clouds.9 mph77%30.36 "Hg10 mi
7:54 PM24 °FPassing clouds.7 mph81%30.35 "Hg10 mi
7:02 PM25 °FPartly cloudy.7 mph92%30.22 "Hg10 mi
6:54 PM25 °FPassing clouds.8 mph92%30.35 "Hg9 mi
5:54 PM28 °FLight snow. Passing clouds.15 mph69%30.29 "Hg9 mi
Weather by CustomWeather, © 2014

See weather overviewHow to use our weather pages